Birchwood, AK

10:02 PM AKDT on April 23, 2017 (GMT -0800)
Birchwood

Weather History for PABV - October, 2012

Change the Weather History Date:

Thursday, October 18, 2012

  Actual Average Record
Temperature  
Mean Temperature 27 °F -  
Max Temperature 33 °F 36 °F 55 °F (2013)
Min Temperature 21 °F 23 °F 0 °F (1996)
Degree Days  
Heating Degree Days 38    
Moisture  
Dew Point 20 °F    
Average Humidity 77    
Maximum Humidity 93    
Minimum Humidity 52    
Precipitation  
Precipitation 0.00 in - - ()
Sea Level Pressure  
Sea Level Pressure 29.77 in    
Wind  
Wind Speed 4 mph (South)    
Max Wind Speed 8 mph    
Max Gust Speed -    
Visibility 10 miles    
Events      
Averages and records for this station are not official NWS values.
T = Trace of Precipitation, MM = Missing Value Source: NWS Daily Summary

Daily Weather History Graph

Daily Weather History Graph

Search for Another Location

Airport or City:

Trip Planner

Search our weather history database for the weather conditions in past years. The results will help you decide how hot, cold, wet, or windy it might be!

Date:

Astronomy

Oct. 18, 2012 Rise Set
Actual Time 8:50 AM AKDT 6:34 PM AKDT
Civil Twilight 8:05 AM AKDT 7:18 PM AKDT
Nautical Twilight 7:15 AM AKDT 8:09 PM AKDT
Astronomical Twilight 6:24 AM AKDT 8:59 PM AKDT
Moon 1:53 PM AKDT (10/18) 8:08 PM AKDT (10/18)
Length of Visible Light 11h 13m
Length of Day
9h 43m
Waxing Crescent, 15% of the Moon is Illuminated
Oct 18
Waxing Crescent
Oct 21
First Quarter
Oct 29
Full
Nov 6
Last Quarter
Nov 13
New

Hourly Weather History & Observations

Time (AKDT) Temp. Windchill Dew Point Humidity Pressure Visibility Wind Dir Wind Speed Gust Speed Precip Events Conditions
12:16 AM 26.6 °F 21.2 °F 23.0 °F 86% 29.68 in 10.0 mi SSW 4.6 mph - N/A   Clear
12:36 AM 26.6 °F 19.1 °F 23.0 °F 86% 29.68 in 10.0 mi South 6.9 mph - N/A   Clear
12:56 AM 26.6 °F 20.0 °F 23.0 °F 86% 29.69 in 10.0 mi SSW 5.8 mph - N/A   Clear
1:16 AM 26.6 °F 19.1 °F 23.0 °F 86% 29.69 in 10.0 mi South 6.9 mph - N/A   Clear
1:36 AM 26.6 °F 20.0 °F 21.2 °F 80% 29.69 in 10.0 mi South 5.8 mph - N/A   Clear
1:56 AM 26.6 °F 21.2 °F 21.2 °F 80% 29.69 in 10.0 mi SSW 4.6 mph - N/A   Clear
2:16 AM 24.8 °F 17.9 °F 21.2 °F 86% 29.70 in 10.0 mi South 5.8 mph - N/A   Clear
2:36 AM 26.6 °F 21.2 °F 21.2 °F 80% 29.70 in 10.0 mi South 4.6 mph - N/A   Clear
2:56 AM 24.8 °F 19.1 °F 21.2 °F 86% 29.70 in 10.0 mi SSW 4.6 mph - N/A   Clear
3:16 AM 24.8 °F 19.1 °F 19.4 °F 80% 29.71 in 10.0 mi South 4.6 mph - N/A   Clear
3:36 AM 24.8 °F 20.5 °F 19.4 °F 80% 29.71 in 10.0 mi South 3.5 mph - N/A   Clear
3:56 AM 23.0 °F 15.8 °F 19.4 °F 86% 29.71 in 10.0 mi South 5.8 mph - N/A   Clear
4:16 AM 23.0 °F 17.0 °F 19.4 °F 86% 29.72 in 10.0 mi South 4.6 mph - N/A   Clear
4:36 AM 24.8 °F 20.5 °F 19.4 °F 80% 29.72 in 10.0 mi SSE 3.5 mph - N/A   Clear
4:56 AM 24.8 °F 20.5 °F 19.4 °F 80% 29.73 in 10.0 mi South 3.5 mph - N/A   Clear
5:16 AM 23.0 °F 15.8 °F 19.4 °F 86% 29.73 in 10.0 mi South 5.8 mph - N/A   Clear
5:36 AM 23.0 °F 18.4 °F 19.4 °F 86% 29.73 in 10.0 mi South 3.5 mph - N/A   Clear
5:56 AM 21.2 °F 16.4 °F 17.6 °F 86% 29.74 in 10.0 mi South 3.5 mph - N/A   Clear
6:16 AM 23.0 °F 15.8 °F 19.4 °F 86% 29.74 in 10.0 mi South 5.8 mph - N/A   Clear
6:36 AM 21.2 °F - 17.6 °F 86% 29.74 in 10.0 mi Calm Calm - N/A   Clear
6:56 AM 21.2 °F 13.6 °F 17.6 °F 86% 29.75 in 10.0 mi South 5.8 mph - N/A   Clear
7:16 AM 21.2 °F 14.9 °F 17.6 °F 86% 29.76 in 10.0 mi South 4.6 mph - N/A   Clear
7:36 AM 21.2 °F 13.6 °F 17.6 °F 86% 29.76 in 10.0 mi SSW 5.8 mph - N/A   Clear
7:56 AM 21.2 °F 14.9 °F 17.6 °F 86% 29.77 in 10.0 mi South 4.6 mph - N/A   Clear
8:16 AM 21.2 °F 14.9 °F 17.6 °F 86% 29.77 in 10.0 mi South 4.6 mph - N/A   Clear
8:36 AM 21.2 °F 14.9 °F 17.6 °F 86% 29.77 in 10.0 mi South 4.6 mph - N/A   Clear
8:56 AM 21.2 °F 13.6 °F 17.6 °F 86% 29.78 in 10.0 mi South 5.8 mph - N/A   Clear
9:16 AM 21.2 °F 16.4 °F 17.6 °F 86% 29.78 in 10.0 mi South 3.5 mph - N/A   Clear
9:36 AM 21.2 °F 13.6 °F 17.6 °F 86% 29.78 in 10.0 mi South 5.8 mph - N/A   Clear
9:56 AM 21.2 °F 14.9 °F 19.4 °F 93% 29.79 in 10.0 mi South 4.6 mph - N/A   Clear
10:16 AM 21.2 °F - 19.4 °F 93% 29.79 in 10.0 mi Calm Calm - N/A   Clear
10:36 AM 24.8 °F 19.1 °F 19.4 °F 80% 29.79 in 10.0 mi SSW 4.6 mph - N/A   Clear
10:56 AM 24.8 °F 16.1 °F 19.4 °F 80% 29.80 in 10.0 mi South 8.1 mph - N/A   Clear
11:16 AM 24.8 °F 17.9 °F 19.4 °F 80% 29.80 in 10.0 mi SSW 5.8 mph - N/A   Clear
11:36 AM 26.6 °F 21.2 °F 19.4 °F 74% 29.81 in 10.0 mi South 4.6 mph - N/A   Clear
11:56 AM 26.6 °F 22.6 °F 21.2 °F 80% 29.80 in 10.0 mi South 3.5 mph - N/A   Clear
12:16 PM 26.6 °F 22.6 °F 21.2 °F 80% 29.81 in 10.0 mi South 3.5 mph - N/A   Clear
12:36 PM 28.4 °F 22.2 °F 21.2 °F 74% 29.80 in 10.0 mi South 5.8 mph - N/A   Clear
12:56 PM 28.4 °F - 21.2 °F 74% 29.80 in 10.0 mi Calm Calm - N/A   Clear
1:16 PM 28.4 °F 24.6 °F 21.2 °F 74% 29.80 in 10.0 mi West 3.5 mph - N/A   Clear
1:36 PM 28.4 °F - 21.2 °F 74% 29.80 in 10.0 mi Calm Calm - N/A   Clear
1:56 PM 30.2 °F 26.7 °F 24.8 °F 80% 29.80 in 10.0 mi West 3.5 mph - N/A   Clear
2:16 PM 30.2 °F 25.4 °F 23.0 °F 75% 29.80 in 10.0 mi West 4.6 mph - N/A   Clear
2:36 PM 30.2 °F - 24.8 °F 80% 29.80 in 10.0 mi Calm Calm - N/A   Clear
2:56 PM 30.2 °F - 24.8 °F 80% 29.80 in 10.0 mi Calm Calm - N/A   Clear
3:16 PM 32.0 °F 28.7 °F 21.2 °F 64% 29.80 in 10.0 mi SW 3.5 mph - N/A   Clear
3:36 PM 32.0 °F - 19.4 °F 60% 29.80 in 10.0 mi Calm Calm - N/A   Clear
3:56 PM 32.0 °F - 19.4 °F 60% 29.80 in 10.0 mi Calm Calm - N/A   Clear
4:16 PM 33.8 °F 30.8 °F 19.4 °F 56% 29.80 in 10.0 mi SSE 3.5 mph - N/A   Clear
4:36 PM 33.8 °F 30.8 °F 19.4 °F 56% 29.80 in 10.0 mi SSE 3.5 mph - N/A   Clear
4:56 PM 33.8 °F - 17.6 °F 52% 29.79 in 10.0 mi Calm Calm - N/A   Clear
5:36 PM 33.8 °F 30.8 °F 17.6 °F 52% 29.79 in 10.0 mi ESE 3.5 mph - N/A   Clear
5:56 PM 33.8 °F - 19.4 °F 56% 29.79 in 10.0 mi Calm Calm - N/A   Clear
6:16 PM 32.0 °F 28.7 °F 19.4 °F 60% 29.79 in 10.0 mi SSE 3.5 mph - N/A   Clear
6:36 PM 30.2 °F 26.7 °F 21.2 °F 69% 29.79 in 10.0 mi ESE 3.5 mph - N/A   Clear
6:56 PM 30.2 °F 25.4 °F 21.2 °F 69% 29.79 in 10.0 mi ESE 4.6 mph - N/A   Clear
7:16 PM 30.2 °F 25.4 °F 19.4 °F 64% 29.80 in 10.0 mi SE 4.6 mph - N/A   Clear
7:36 PM 28.4 °F 22.2 °F 19.4 °F 69% 29.80 in 10.0 mi ESE 5.8 mph - N/A   Clear
7:56 PM 28.4 °F 23.3 °F 19.4 °F 69% 29.80 in 10.0 mi ESE 4.6 mph - N/A   Clear
8:16 PM 28.4 °F 22.2 °F 19.4 °F 69% 29.80 in 10.0 mi ESE 5.8 mph - N/A   Clear
8:36 PM 28.4 °F 22.2 °F 19.4 °F 69% 29.80 in 10.0 mi ESE 5.8 mph - N/A   Clear
8:56 PM 28.4 °F 22.2 °F 19.4 °F 69% 29.81 in 10.0 mi SE 5.8 mph - N/A   Clear
9:16 PM 28.4 °F 22.2 °F 19.4 °F 69% 29.81 in 10.0 mi SE 5.8 mph - N/A   Clear
9:36 PM 28.4 °F 21.2 °F 17.6 °F 64% 29.81 in 10.0 mi SE 6.9 mph - N/A   Clear
9:56 PM 26.6 °F - 19.4 °F 74% 29.82 in 10.0 mi Calm Calm - N/A   Clear
10:16 PM 26.6 °F 22.6 °F 19.4 °F 74% 29.82 in 10.0 mi SE 3.5 mph - N/A   Clear
10:36 PM 26.6 °F 21.2 °F 19.4 °F 74% 29.82 in 10.0 mi ESE 4.6 mph - N/A   Clear
10:56 PM 26.6 °F - 19.4 °F 74% 29.82 in 10.0 mi Calm Calm - N/A   Clear
11:16 PM 24.8 °F 20.5 °F 19.4 °F 80% 29.82 in 10.0 mi South 3.5 mph - N/A   Clear
11:36 PM 24.8 °F 19.1 °F 19.4 °F 80% 29.83 in 10.0 mi South 4.6 mph - N/A   Clear
11:56 PM 26.6 °F 20.0 °F 19.4 °F 74% 29.83 in 10.0 mi SE 5.8 mph - N/A   Clear